AEE317 LCPH-LGHI

Flight info

Callsign AEE317
Flight time 1h 47m
Altitude 24000
Route GENOS M42 ALKIS UL609 PIPEN
Aircraft AT76/M-SDFGIRY/S

Departure

Time 2026-04-24 09:42
Airport Paphos International Airport (LCPH)

Arrival

Time 2026-04-24 11:29
Airport Chios Island National Airport (LGHI)
Time Latitude Longitude Altitude Speed Heading
2026-04-24 09:14 34.71335 32.48742 42 ft 0 kts 155°
2026-04-24 09:37 34.71332 32.48749 42 ft 1 kts 112°
2026-04-24 09:37 34.71335 32.48755 42 ft 1 kts 55°
2026-04-24 09:37 34.71344 32.48754 42 ft 2 kts 343°
2026-04-24 09:37 34.71371 32.48739 42 ft 6 kts 346°
2026-04-24 09:38 34.71424 32.48744 42 ft 9 kts 28°
2026-04-24 09:38 34.71460 32.48814 42 ft 11 kts 65°
2026-04-24 09:38 34.71492 32.48898 42 ft 11 kts 64°
2026-04-24 09:38 34.71533 32.48972 42 ft 9 kts 26°
2026-04-24 09:39 34.71552 32.48981 43 ft 0 kts 21°
2026-04-24 09:39 34.71563 32.48986 43 ft 4 kts 20°
2026-04-24 09:39 34.71597 32.49001 44 ft 6 kts 21°
2026-04-24 09:39 34.71633 32.49018 44 ft 6 kts 19°
2026-04-24 09:40 34.71654 32.49015 44 ft 3 kts 315°
2026-04-24 09:40 34.71660 32.49001 44 ft 0 kts 292°
2026-04-24 09:41 34.71678 32.48944 42 ft 31 kts 290°
2026-04-24 09:41 34.71828 32.48436 43 ft 95 kts 290°
2026-04-24 09:42 34.72105 32.47530 297 ft 116 kts 292°
2026-04-24 09:42 34.72432 32.46623 786 ft 125 kts 290°
2026-04-24 09:42 34.72495 32.45605 1432 ft 118 kts 254°
2026-04-24 09:42 34.72229 32.44675 1994 ft 120 kts 248°
2026-04-24 09:43 34.71917 32.43722 2530 ft 118 kts 249°
2026-04-24 09:43 34.71582 32.42754 2780 ft 128 kts 246°
2026-04-24 09:43 34.71234 32.41721 3017 ft 141 kts 251°
2026-04-24 09:43 34.70913 32.40580 3241 ft 155 kts 249°
2026-04-24 09:44 34.70573 32.39235 3348 ft 176 kts 256°
2026-04-24 09:44 34.70299 32.37775 3732 ft 178 kts 258°
2026-04-24 09:44 34.70040 32.36303 4154 ft 179 kts 258°
2026-04-24 09:44 34.69771 32.34830 4580 ft 178 kts 257°
2026-04-24 09:45 34.69491 32.33365 4977 ft 178 kts 257°
2026-04-24 09:45 34.69200 32.31903 5369 ft 178 kts 257°
2026-04-24 09:45 34.68902 32.30438 5765 ft 178 kts 257°
2026-04-24 09:45 34.68601 32.28968 6142 ft 179 kts 257°
2026-04-24 09:46 34.68301 32.27503 6504 ft 179 kts 257°
2026-04-24 09:46 34.67998 32.26034 6859 ft 180 kts 257°
2026-04-24 09:46 34.67691 32.24557 7194 ft 181 kts 257°
2026-04-24 09:46 34.67388 32.23093 7534 ft 181 kts 257°
2026-04-24 09:47 34.67080 32.21600 7876 ft 182 kts 258°
2026-04-24 09:47 34.66770 32.20105 8203 ft 183 kts 258°
2026-04-24 09:47 34.66465 32.18607 8527 ft 182 kts 261°
2026-04-24 09:47 34.66343 32.17071 8848 ft 183 kts 268°
2026-04-24 09:48 34.66276 32.15531 9159 ft 183 kts 269°
2026-04-24 09:48 34.66258 32.13987 9453 ft 183 kts 272°
2026-04-24 09:48 34.66316 32.12439 9753 ft 183 kts 275°
2026-04-24 09:48 34.66420 32.10895 10047 ft 184 kts 275°
2026-04-24 09:49 34.66533 32.09346 10336 ft 184 kts 275°
2026-04-24 09:49 34.66656 32.07798 10631 ft 184 kts 275°
2026-04-24 09:49 34.66788 32.06249 10933 ft 184 kts 275°
2026-04-24 09:49 34.66907 32.04702 11225 ft 185 kts 275°
2026-04-24 09:50 34.67020 32.03146 11529 ft 184 kts 274°
2026-04-24 09:50 34.67129 32.01592 11804 ft 185 kts 274°
2026-04-24 09:50 34.67239 32.00030 12083 ft 185 kts 273°
2026-04-24 09:50 34.67347 31.98465 12362 ft 186 kts 273°
2026-04-24 09:51 34.67456 31.96901 12638 ft 186 kts 273°
2026-04-24 09:51 34.67567 31.95330 12898 ft 187 kts 273°
2026-04-24 09:51 34.67675 31.93779 13166 ft 186 kts 273°
2026-04-24 09:51 34.67784 31.92204 13418 ft 187 kts 273°
2026-04-24 09:52 34.67895 31.90627 13682 ft 187 kts 273°
2026-04-24 09:52 34.68088 31.89061 13908 ft 189 kts 283°
2026-04-24 09:52 34.68518 31.87540 14163 ft 191 kts 287°
2026-04-24 09:52 34.69000 31.86034 14395 ft 191 kts 288°
2026-04-24 09:53 34.69481 31.84533 14628 ft 191 kts 287°
2026-04-24 09:53 34.69938 31.83018 14842 ft 191 kts 285°
2026-04-24 09:53 34.70375 31.81494 15057 ft 191 kts 285°
2026-04-24 09:53 34.70805 31.79964 15288 ft 192 kts 285°
2026-04-24 09:54 34.71239 31.78426 15516 ft 192 kts 285°
2026-04-24 09:54 34.71675 31.76887 15740 ft 193 kts 284°
2026-04-24 09:54 34.72108 31.75351 15964 ft 192 kts 284°
2026-04-24 09:54 34.72543 31.73809 16163 ft 193 kts 284°
2026-04-24 09:55 34.72980 31.72262 16374 ft 193 kts 284°
2026-04-24 09:55 34.73415 31.70716 16562 ft 194 kts 284°
2026-04-24 09:55 34.73852 31.69167 16757 ft 193 kts 284°
2026-04-24 09:55 34.74289 31.67612 16930 ft 194 kts 284°
2026-04-24 09:56 34.74728 31.66058 17115 ft 194 kts 284°
2026-04-24 09:56 34.75166 31.64501 17284 ft 195 kts 284°
2026-04-24 09:56 34.75603 31.62940 17477 ft 195 kts 284°
2026-04-24 09:56 34.76037 31.61397 17669 ft 195 kts 284°
2026-04-24 09:57 34.76477 31.59830 17851 ft 196 kts 284°
2026-04-24 09:57 34.76919 31.58261 18039 ft 196 kts 284°
2026-04-24 09:57 34.77360 31.56690 18216 ft 196 kts 284°
2026-04-24 09:57 34.77800 31.55116 18375 ft 197 kts 283°
2026-04-24 09:58 34.78244 31.53538 18547 ft 197 kts 283°
2026-04-24 09:58 34.78685 31.51964 18700 ft 197 kts 283°
2026-04-24 09:58 34.79127 31.50384 18850 ft 198 kts 283°
2026-04-24 09:58 34.79570 31.48800 18987 ft 199 kts 283°
2026-04-24 09:59 34.80012 31.47211 19136 ft 198 kts 283°
2026-04-24 09:59 34.80457 31.45624 19273 ft 198 kts 283°
2026-04-24 09:59 34.80901 31.44033 19391 ft 199 kts 283°
2026-04-24 09:59 34.81347 31.42438 19521 ft 200 kts 283°
2026-04-24 10:00 34.81793 31.40836 19637 ft 200 kts 283°
2026-04-24 10:00 34.82239 31.39234 19801 ft 200 kts 283°
2026-04-24 10:00 34.82688 31.37620 19892 ft 203 kts 283°
2026-04-24 10:00 34.83149 31.35965 19893 ft 209 kts 283°
2026-04-24 10:01 34.83621 31.34267 19901 ft 214 kts 283°
2026-04-24 10:01 34.84100 31.32538 19912 ft 218 kts 283°
2026-04-24 10:01 34.84587 31.30779 19923 ft 220 kts 283°
2026-04-24 10:01 34.85074 31.29023 19932 ft 223 kts 283°
2026-04-24 10:02 34.85573 31.27227 19942 ft 225 kts 283°
2026-04-24 10:02 34.86074 31.25420 19952 ft 226 kts 283°
2026-04-24 10:02 34.86578 31.23598 19961 ft 228 kts 283°
2026-04-24 10:02 34.87086 31.21763 19968 ft 229 kts 283°
2026-04-24 10:03 34.87595 31.19925 19974 ft 230 kts 283°
2026-04-24 10:03 34.88106 31.18080 19983 ft 230 kts 283°
2026-04-24 10:03 34.88615 31.16231 20000 ft 230 kts 283°
2026-04-24 10:03 34.89126 31.14385 20012 ft 230 kts 283°
2026-04-24 10:04 34.89637 31.12531 20012 ft 231 kts 283°
2026-04-24 10:04 34.90149 31.10668 20019 ft 231 kts 283°
2026-04-24 10:04 34.90662 31.08809 20030 ft 232 kts 283°
2026-04-24 10:04 34.91176 31.06944 20038 ft 232 kts 283°
2026-04-24 10:05 34.91684 31.05100 20045 ft 232 kts 283°
2026-04-24 10:05 34.92205 31.03207 20050 ft 233 kts 283°
2026-04-24 10:05 34.92713 31.01358 20050 ft 233 kts 283°
2026-04-24 10:05 34.93225 30.99487 20050 ft 233 kts 283°
2026-04-24 10:06 34.93741 30.97614 20050 ft 233 kts 283°
2026-04-24 10:06 34.94769 30.93865 20049 ft 233 kts 283°
2026-04-24 10:06 34.95282 30.91992 20049 ft 233 kts 283°
2026-04-24 10:07 34.95795 30.90120 20048 ft 233 kts 283°
2026-04-24 10:07 34.96305 30.88250 20048 ft 233 kts 283°
2026-04-24 10:07 34.96817 30.86379 20048 ft 233 kts 283°
2026-04-24 10:07 34.97330 30.84507 20051 ft 233 kts 283°
2026-04-24 10:08 34.97841 30.82633 20054 ft 233 kts 283°
2026-04-24 10:08 34.98351 30.80762 20058 ft 232 kts 283°
2026-04-24 10:08 34.98860 30.78891 20062 ft 232 kts 283°
2026-04-24 10:08 34.99370 30.77024 20063 ft 232 kts 283°
2026-04-24 10:09 34.99877 30.75152 20063 ft 232 kts 283°
2026-04-24 10:09 35.00387 30.73281 20062 ft 232 kts 283°
2026-04-24 10:09 35.00894 30.71413 20061 ft 232 kts 283°
2026-04-24 10:09 35.01404 30.69542 20059 ft 233 kts 283°
2026-04-24 10:10 35.01911 30.67668 20059 ft 232 kts 283°
2026-04-24 10:10 35.02419 30.65799 20059 ft 232 kts 283°
2026-04-24 10:10 35.02926 30.63926 20060 ft 232 kts 283°
2026-04-24 10:10 35.03434 30.62054 20059 ft 232 kts 283°
2026-04-24 10:11 35.03941 30.60182 20061 ft 233 kts 283°
2026-04-24 10:11 35.04447 30.58310 20064 ft 232 kts 283°
2026-04-24 10:11 35.04782 30.57072 20065 ft 232 kts 283°
2026-04-24 10:11 35.05460 30.54568 20065 ft 232 kts 283°
2026-04-24 10:12 35.05963 30.52702 20065 ft 232 kts 283°
2026-04-24 10:12 35.06297 30.51467 20064 ft 231 kts 283°
2026-04-24 10:12 35.06800 30.49598 20063 ft 232 kts 283°
2026-04-24 10:12 35.07303 30.47732 20062 ft 232 kts 283°
2026-04-24 10:13 35.07969 30.45256 20061 ft 231 kts 283°
2026-04-24 10:13 35.08472 30.43388 20061 ft 231 kts 283°
2026-04-24 10:13 35.08811 30.42128 20061 ft 231 kts 283°
2026-04-24 10:13 35.09312 30.40261 20061 ft 231 kts 283°
2026-04-24 10:14 35.09815 30.38390 20061 ft 232 kts 283°
2026-04-24 10:14 35.10316 30.36524 20062 ft 231 kts 283°
2026-04-24 10:14 35.10810 30.34678 20061 ft 231 kts 283°
2026-04-24 10:14 35.11154 30.33397 20070 ft 231 kts 283°
2026-04-24 10:15 35.11587 30.31777 20081 ft 231 kts 283°
2026-04-24 10:15 35.12080 30.29933 20082 ft 231 kts 283°
2026-04-24 10:15 35.12580 30.28072 20083 ft 231 kts 283°
2026-04-24 10:15 35.13075 30.26214 20083 ft 230 kts 283°
2026-04-24 10:16 35.13574 30.24351 20082 ft 230 kts 283°
2026-04-24 10:16 35.14071 30.22487 20082 ft 230 kts 283°
2026-04-24 10:16 35.14566 30.20628 20082 ft 230 kts 283°
2026-04-24 10:16 35.15064 30.18766 20081 ft 230 kts 283°
2026-04-24 10:17 35.15558 30.16909 20081 ft 230 kts 283°
2026-04-24 10:17 35.16054 30.15047 20082 ft 230 kts 283°
2026-04-24 10:17 35.16551 30.13180 20046 ft 232 kts 283°
2026-04-24 10:17 35.17053 30.11296 19993 ft 234 kts 283°
2026-04-24 10:18 35.17558 30.09407 19967 ft 234 kts 283°
2026-04-24 10:18 35.18053 30.07540 19955 ft 234 kts 283°
2026-04-24 10:18 35.18553 30.05653 19949 ft 233 kts 283°
2026-04-24 10:18 35.19054 30.03770 19946 ft 232 kts 283°
2026-04-24 10:19 35.19552 30.01893 19945 ft 232 kts 283°
2026-04-24 10:19 35.20056 30.00022 19944 ft 231 kts 284°
2026-04-24 10:19 35.20865 29.98301 19945 ft 238 kts 300°
2026-04-24 10:19 35.21910 29.96710 19943 ft 241 kts 302°
2026-04-24 10:20 35.22975 29.95131 19943 ft 240 kts 301°
2026-04-24 10:20 35.24009 29.93529 19943 ft 239 kts 300°
2026-04-24 10:20 35.25008 29.91901 19943 ft 239 kts 299°
2026-04-24 10:20 35.25995 29.90270 19943 ft 239 kts 299°
2026-04-24 10:21 35.26986 29.88637 19943 ft 239 kts 299°
2026-04-24 10:21 35.27979 29.87004 19943 ft 239 kts 299°
2026-04-24 10:21 35.28971 29.85374 19943 ft 239 kts 299°
2026-04-24 10:21 35.29962 29.83745 19943 ft 239 kts 299°
2026-04-24 10:22 35.30955 29.82111 19943 ft 239 kts 299°
2026-04-24 10:22 35.31943 29.80484 19943 ft 238 kts 299°
2026-04-24 10:22 35.32934 29.78853 19943 ft 238 kts 299°
2026-04-24 10:22 35.33922 29.77225 19943 ft 238 kts 299°
2026-04-24 10:23 35.34912 29.75594 19943 ft 238 kts 299°
2026-04-24 10:23 35.35901 29.73963 19943 ft 239 kts 299°
2026-04-24 10:23 35.36878 29.72351 19943 ft 239 kts 299°
2026-04-24 10:23 35.37866 29.70718 19943 ft 239 kts 299°
2026-04-24 10:24 35.38857 29.69083 19943 ft 239 kts 299°
2026-04-24 10:24 35.39844 29.67452 19943 ft 238 kts 299°
2026-04-24 10:24 35.40832 29.65820 19943 ft 238 kts 299°
2026-04-24 10:24 35.41820 29.64185 19944 ft 239 kts 299°
2026-04-24 10:25 35.42809 29.62551 19944 ft 239 kts 299°
2026-04-24 10:25 35.43796 29.60914 19943 ft 239 kts 299°
2026-04-24 10:25 35.44783 29.59282 19943 ft 239 kts 299°
2026-04-24 10:25 35.45771 29.57646 19943 ft 238 kts 299°
2026-04-24 10:26 35.46755 29.56012 19943 ft 238 kts 299°
2026-04-24 10:26 35.47740 29.54380 19943 ft 238 kts 299°
2026-04-24 10:26 35.48725 29.52745 19943 ft 238 kts 299°
2026-04-24 10:26 35.49711 29.51112 19943 ft 238 kts 299°
2026-04-24 10:27 35.50695 29.49476 19943 ft 238 kts 299°
2026-04-24 10:27 35.51680 29.47841 19943 ft 239 kts 299°
2026-04-24 10:27 35.52664 29.46203 19943 ft 239 kts 299°
2026-04-24 10:27 35.53651 29.44562 19943 ft 239 kts 299°
2026-04-24 10:28 35.54635 29.42922 19943 ft 239 kts 299°
2026-04-24 10:28 35.55621 29.41282 19943 ft 239 kts 299°
2026-04-24 10:28 35.56609 29.39639 19943 ft 239 kts 299°
2026-04-24 10:28 35.57583 29.38017 19944 ft 239 kts 299°
2026-04-24 10:29 35.58566 29.36375 19944 ft 239 kts 299°
2026-04-24 10:29 35.59552 29.34732 19944 ft 239 kts 299°
2026-04-24 10:29 35.60536 29.33088 19943 ft 239 kts 299°
2026-04-24 10:29 35.61520 29.31447 19943 ft 239 kts 299°
2026-04-24 10:30 35.62505 29.29804 19943 ft 239 kts 299°
2026-04-24 10:30 35.63487 29.28161 19943 ft 238 kts 298°
2026-04-24 10:30 35.64468 29.26522 19943 ft 238 kts 299°
2026-04-24 10:30 35.65450 29.24884 19943 ft 238 kts 298°
2026-04-24 10:31 35.66431 29.23239 19943 ft 238 kts 298°
2026-04-24 10:31 35.67414 29.21596 19943 ft 238 kts 298°
2026-04-24 10:31 35.68395 29.19950 19943 ft 239 kts 298°
2026-04-24 10:31 35.69377 29.18306 19943 ft 239 kts 298°
2026-04-24 10:32 35.70358 29.16658 19943 ft 239 kts 298°
2026-04-24 10:32 35.71342 29.15009 19943 ft 239 kts 298°
2026-04-24 10:32 35.72324 29.13361 19943 ft 239 kts 298°
2026-04-24 10:32 35.73307 29.11711 19943 ft 239 kts 298°
2026-04-24 10:33 35.74288 29.10061 19943 ft 239 kts 298°
2026-04-24 10:33 35.75271 29.08413 19943 ft 239 kts 298°
2026-04-24 10:33 35.76251 29.06764 19943 ft 239 kts 298°
2026-04-24 10:33 35.77232 29.05114 19943 ft 239 kts 298°
2026-04-24 10:34 35.78215 29.03462 19943 ft 239 kts 298°
2026-04-24 10:34 35.79181 29.01833 19946 ft 239 kts 298°
2026-04-24 10:34 35.80163 29.00182 19950 ft 239 kts 298°
2026-04-24 10:34 35.81143 28.98527 19951 ft 239 kts 298°
2026-04-24 10:35 35.82125 28.96873 19952 ft 239 kts 298°
2026-04-24 10:35 35.83108 28.95216 19952 ft 239 kts 298°
2026-04-24 10:35 35.84087 28.93563 19953 ft 239 kts 298°
2026-04-24 10:35 35.85065 28.91910 19953 ft 239 kts 298°
2026-04-24 10:36 35.86049 28.90252 19952 ft 239 kts 298°
2026-04-24 10:36 35.87027 28.88597 19952 ft 239 kts 298°
2026-04-24 10:36 35.88005 28.86945 19952 ft 239 kts 298°
2026-04-24 10:36 35.88983 28.85287 19953 ft 239 kts 298°
2026-04-24 10:37 35.89965 28.83631 19952 ft 239 kts 298°
2026-04-24 10:37 35.90946 28.81976 19952 ft 239 kts 298°
2026-04-24 10:37 35.91925 28.80319 19947 ft 239 kts 298°
2026-04-24 10:37 35.92905 28.78660 19945 ft 239 kts 298°
2026-04-24 10:38 35.93881 28.77004 19944 ft 239 kts 298°
2026-04-24 10:38 35.94847 28.75369 19944 ft 239 kts 298°
2026-04-24 10:38 35.95818 28.73711 19944 ft 238 kts 298°
2026-04-24 10:38 35.96794 28.72051 19943 ft 238 kts 298°
2026-04-24 10:39 35.97767 28.70397 19943 ft 239 kts 298°
2026-04-24 10:39 35.98740 28.68738 19943 ft 239 kts 298°
2026-04-24 10:39 35.99715 28.67079 19943 ft 239 kts 298°
2026-04-24 10:39 36.00692 28.65421 19944 ft 239 kts 297°
2026-04-24 10:40 36.01668 28.63761 19943 ft 238 kts 297°
2026-04-24 10:40 36.02643 28.62101 19943 ft 238 kts 297°
2026-04-24 10:40 36.03616 28.60446 19943 ft 238 kts 297°
2026-04-24 10:40 36.04590 28.58784 19943 ft 238 kts 297°
2026-04-24 10:41 36.05562 28.57128 19944 ft 238 kts 297°
2026-04-24 10:41 36.06535 28.55468 19945 ft 238 kts 297°
2026-04-24 10:41 36.07511 28.53808 19944 ft 239 kts 297°
2026-04-24 10:41 36.08484 28.52149 19944 ft 239 kts 297°
2026-04-24 10:42 36.09458 28.50487 19943 ft 239 kts 297°
2026-04-24 10:42 36.10418 28.48847 19942 ft 238 kts 297°
2026-04-24 10:42 36.11388 28.47184 19942 ft 238 kts 297°
2026-04-24 10:42 36.12359 28.45527 19943 ft 238 kts 297°
2026-04-24 10:43 36.13331 28.43867 19943 ft 238 kts 297°
2026-04-24 10:43 36.14293 28.42200 19943 ft 238 kts 297°
2026-04-24 10:43 36.15258 28.40538 19943 ft 238 kts 297°
2026-04-24 10:43 36.16232 28.38873 19943 ft 238 kts 297°
2026-04-24 10:44 36.17203 28.37210 19944 ft 238 kts 297°
2026-04-24 10:44 36.18171 28.35548 19944 ft 238 kts 297°
2026-04-24 10:44 36.19143 28.33884 19943 ft 238 kts 297°
2026-04-24 10:44 36.20110 28.32219 19943 ft 238 kts 297°
2026-04-24 10:45 36.21083 28.30550 19943 ft 238 kts 297°
2026-04-24 10:45 36.22050 28.28884 19944 ft 238 kts 297°
2026-04-24 10:45 36.23019 28.27220 19944 ft 238 kts 297°
2026-04-24 10:45 36.23989 28.25554 19943 ft 238 kts 297°
2026-04-24 10:46 36.24956 28.23890 19943 ft 239 kts 297°
2026-04-24 10:46 36.25928 28.22217 19943 ft 238 kts 297°
2026-04-24 10:46 36.26896 28.20550 19943 ft 238 kts 297°
2026-04-24 10:46 36.27864 28.18884 19943 ft 238 kts 297°
2026-04-24 10:47 36.28836 28.17214 19944 ft 238 kts 297°
2026-04-24 10:47 36.29791 28.15567 19945 ft 239 kts 297°
2026-04-24 10:47 36.30761 28.13896 19946 ft 239 kts 297°
2026-04-24 10:47 36.31730 28.12220 19943 ft 239 kts 297°
2026-04-24 10:48 36.32702 28.10542 19936 ft 240 kts 297°
2026-04-24 10:48 36.33676 28.08868 19937 ft 240 kts 297°
2026-04-24 10:48 36.34712 28.07238 19939 ft 244 kts 304°
2026-04-24 10:48 36.35961 28.05774 19935 ft 249 kts 309°
2026-04-24 10:49 36.37270 28.04362 19936 ft 250 kts 310°
2026-04-24 10:49 36.38579 28.02946 19936 ft 249 kts 309°
2026-04-24 10:49 36.39863 28.01503 19930 ft 248 kts 308°
2026-04-24 10:49 36.41126 28.00049 19930 ft 247 kts 308°
2026-04-24 10:50 36.42384 27.98596 19932 ft 247 kts 308°
2026-04-24 10:50 36.43643 27.97143 19933 ft 246 kts 308°
2026-04-24 10:50 36.44896 27.95694 19935 ft 246 kts 307°
2026-04-24 10:50 36.46149 27.94245 19939 ft 246 kts 307°
2026-04-24 10:51 36.47400 27.92798 19941 ft 246 kts 308°
2026-04-24 10:51 36.48650 27.91350 19943 ft 246 kts 308°
2026-04-24 10:51 36.49903 27.89902 19943 ft 246 kts 308°
2026-04-24 10:51 36.51154 27.88451 19943 ft 246 kts 308°
2026-04-24 10:52 36.52408 27.87000 19943 ft 246 kts 308°
2026-04-24 10:52 36.53660 27.85550 19943 ft 246 kts 307°
2026-04-24 10:52 36.54913 27.84096 19933 ft 246 kts 307°
2026-04-24 10:52 36.56143 27.82671 19945 ft 245 kts 307°
2026-04-24 10:53 36.57388 27.81224 19943 ft 245 kts 307°
2026-04-24 10:53 36.58631 27.79780 19946 ft 244 kts 307°
2026-04-24 10:53 36.59875 27.78335 19951 ft 244 kts 307°
2026-04-24 10:53 36.61117 27.76890 19930 ft 245 kts 307°
2026-04-24 10:54 36.62357 27.75445 19943 ft 244 kts 307°
2026-04-24 10:54 36.63598 27.74001 19945 ft 244 kts 307°
2026-04-24 10:54 36.64838 27.72561 19945 ft 244 kts 307°
2026-04-24 10:54 36.66079 27.71114 19944 ft 244 kts 307°
2026-04-24 10:55 36.67321 27.69670 19944 ft 244 kts 307°
2026-04-24 10:55 36.68562 27.68220 19945 ft 244 kts 307°
2026-04-24 10:55 36.69803 27.66776 19944 ft 244 kts 307°
2026-04-24 10:55 36.71042 27.65333 19948 ft 243 kts 307°
2026-04-24 10:56 36.72277 27.63891 19948 ft 243 kts 307°
2026-04-24 10:56 36.73508 27.62448 19957 ft 243 kts 307°
2026-04-24 10:56 36.74741 27.61005 19950 ft 243 kts 307°
2026-04-24 10:56 36.75974 27.59566 19951 ft 243 kts 307°
2026-04-24 10:57 36.77192 27.58143 19951 ft 242 kts 307°
2026-04-24 10:57 36.78435 27.56686 19953 ft 242 kts 307°
2026-04-24 10:57 36.79652 27.55265 19954 ft 243 kts 307°
2026-04-24 10:57 36.80882 27.53822 19953 ft 243 kts 307°
2026-04-24 10:58 36.82115 27.52379 19953 ft 243 kts 307°
2026-04-24 10:58 36.83348 27.50933 19953 ft 243 kts 307°
2026-04-24 10:58 36.84581 27.49487 19953 ft 243 kts 307°
2026-04-24 10:58 36.85815 27.48042 19952 ft 243 kts 307°
2026-04-24 10:59 36.87046 27.46592 19953 ft 243 kts 307°
2026-04-24 10:59 36.88281 27.45145 19953 ft 243 kts 307°
2026-04-24 10:59 36.89514 27.43694 19948 ft 244 kts 307°
2026-04-24 10:59 36.90748 27.42244 19945 ft 244 kts 307°
2026-04-24 11:00 36.91982 27.40793 19944 ft 244 kts 307°
2026-04-24 11:00 36.93218 27.39339 19944 ft 243 kts 307°
2026-04-24 11:00 36.94449 27.37887 19944 ft 243 kts 307°
2026-04-24 11:00 36.95683 27.36435 19944 ft 243 kts 307°
2026-04-24 11:01 36.96914 27.34985 19944 ft 243 kts 306°
2026-04-24 11:01 36.97730 27.34024 19943 ft 243 kts 307°
2026-04-24 11:01 36.98964 27.32572 19944 ft 244 kts 307°
2026-04-24 11:01 37.00196 27.31116 19948 ft 244 kts 306°
2026-04-24 11:02 37.01428 27.29659 19948 ft 244 kts 306°
2026-04-24 11:02 37.02668 27.28198 19944 ft 245 kts 306°
2026-04-24 11:02 37.03907 27.26733 19944 ft 245 kts 306°
2026-04-24 11:02 37.05146 27.25266 19944 ft 245 kts 307°
2026-04-24 11:03 37.06384 27.23806 19941 ft 245 kts 306°
2026-04-24 11:03 37.07622 27.22340 19940 ft 244 kts 307°
2026-04-24 11:03 37.08858 27.20877 19943 ft 244 kts 306°
2026-04-24 11:03 37.10093 27.19415 19942 ft 244 kts 307°
2026-04-24 11:04 37.11326 27.17956 19941 ft 244 kts 307°
2026-04-24 11:04 37.12556 27.16496 19942 ft 244 kts 307°
2026-04-24 11:04 37.13788 27.15036 19942 ft 243 kts 306°
2026-04-24 11:04 37.15015 27.13578 19943 ft 243 kts 306°
2026-04-24 11:05 37.16239 27.12123 19943 ft 242 kts 307°
2026-04-24 11:05 37.17464 27.10673 19943 ft 242 kts 307°
2026-04-24 11:05 37.18687 27.09218 19943 ft 242 kts 306°
2026-04-24 11:05 37.19895 27.07784 19943 ft 242 kts 306°
2026-04-24 11:06 37.21116 27.06332 19944 ft 242 kts 306°
2026-04-24 11:06 37.22338 27.04877 19949 ft 242 kts 306°
2026-04-24 11:06 37.23560 27.03423 19951 ft 242 kts 306°
2026-04-24 11:06 37.24781 27.01969 19952 ft 242 kts 306°
2026-04-24 11:07 37.27221 26.99062 19952 ft 241 kts 306°
2026-04-24 11:07 37.28438 26.97614 19958 ft 241 kts 306°
2026-04-24 11:07 37.29651 26.96164 19960 ft 241 kts 306°
2026-04-24 11:08 37.30864 26.94714 19962 ft 241 kts 306°
2026-04-24 11:08 37.32078 26.93267 19961 ft 240 kts 306°
2026-04-24 11:08 37.33293 26.91821 19962 ft 241 kts 306°
2026-04-24 11:08 37.34509 26.90373 19962 ft 241 kts 306°
2026-04-24 11:09 37.35723 26.88921 19962 ft 240 kts 306°
2026-04-24 11:09 37.36934 26.87474 19962 ft 241 kts 306°
2026-04-24 11:09 37.38147 26.86017 19962 ft 241 kts 306°
2026-04-24 11:09 37.39368 26.84566 19962 ft 242 kts 307°
2026-04-24 11:10 37.40614 26.83133 19962 ft 242 kts 307°
2026-04-24 11:10 37.41867 26.81712 19962 ft 243 kts 308°
2026-04-24 11:10 37.43144 26.80317 19962 ft 244 kts 309°
2026-04-24 11:10 37.44430 26.78926 19962 ft 244 kts 309°
2026-04-24 11:11 37.45716 26.77537 19960 ft 244 kts 309°
2026-04-24 11:11 37.47004 26.76146 19959 ft 244 kts 309°
2026-04-24 11:11 37.48291 26.74756 19957 ft 244 kts 309°
2026-04-24 11:11 37.49595 26.73351 19668 ft 249 kts 309°
2026-04-24 11:12 37.50917 26.71942 19334 ft 249 kts 309°
2026-04-24 11:12 37.52242 26.70530 18998 ft 249 kts 309°
2026-04-24 11:12 37.53560 26.69115 18664 ft 249 kts 309°
2026-04-24 11:12 37.54870 26.67695 18330 ft 248 kts 309°
2026-04-24 11:13 37.56172 26.66273 17997 ft 248 kts 309°
2026-04-24 11:13 37.57476 26.64853 17665 ft 248 kts 310°
2026-04-24 11:13 37.58766 26.63456 17339 ft 248 kts 310°
2026-04-24 11:13 37.60076 26.62032 17004 ft 248 kts 310°
2026-04-24 11:14 37.61382 26.60612 16675 ft 248 kts 311°
2026-04-24 11:14 37.62688 26.59191 16337 ft 249 kts 311°
2026-04-24 11:14 37.64000 26.57759 16001 ft 250 kts 311°
2026-04-24 11:14 37.65321 26.56318 15664 ft 251 kts 312°
2026-04-24 11:15 37.66642 26.54878 15329 ft 252 kts 312°
2026-04-24 11:15 37.67970 26.53430 14990 ft 253 kts 313°
2026-04-24 11:15 37.69305 26.51976 14649 ft 253 kts 313°
2026-04-24 11:15 37.70643 26.50521 14308 ft 254 kts 314°
2026-04-24 11:16 37.71983 26.49066 13967 ft 255 kts 314°
2026-04-24 11:16 37.73329 26.47601 13624 ft 256 kts 315°
2026-04-24 11:16 37.74676 26.46135 13278 ft 256 kts 315°
2026-04-24 11:16 37.76030 26.44661 12938 ft 257 kts 315°
2026-04-24 11:17 37.77384 26.43187 12593 ft 257 kts 316°
2026-04-24 11:17 37.78741 26.41705 12245 ft 258 kts 316°
2026-04-24 11:17 37.80102 26.40222 11905 ft 259 kts 317°
2026-04-24 11:17 37.81464 26.38737 11554 ft 258 kts 317°
2026-04-24 11:18 37.82817 26.37268 11209 ft 255 kts 317°
2026-04-24 11:18 37.84158 26.35808 10868 ft 253 kts 317°
2026-04-24 11:18 37.85482 26.34361 10530 ft 251 kts 318°
2026-04-24 11:18 37.86798 26.32918 10193 ft 250 kts 318°
2026-04-24 11:19 37.88109 26.31478 9860 ft 249 kts 318°
2026-04-24 11:19 37.89412 26.30051 9530 ft 248 kts 319°
2026-04-24 11:19 37.90715 26.28622 9196 ft 248 kts 319°
2026-04-24 11:19 37.92018 26.27193 8865 ft 247 kts 319°
2026-04-24 11:20 37.93315 26.25770 8535 ft 247 kts 319°
2026-04-24 11:20 37.94612 26.24349 8201 ft 247 kts 319°
2026-04-24 11:20 37.95891 26.22947 7880 ft 246 kts 320°
2026-04-24 11:20 37.97185 26.21522 7551 ft 246 kts 320°
2026-04-24 11:21 37.98480 26.20097 7226 ft 246 kts 319°
2026-04-24 11:21 37.99775 26.18672 6890 ft 246 kts 320°
2026-04-24 11:21 38.01066 26.17251 6559 ft 245 kts 320°
2026-04-24 11:21 38.02355 26.15832 6230 ft 245 kts 320°
2026-04-24 11:22 38.03640 26.14416 5902 ft 244 kts 320°
2026-04-24 11:22 38.04923 26.13005 5572 ft 243 kts 320°
2026-04-24 11:22 38.06280 26.11837 5244 ft 233 kts 342°
2026-04-24 11:22 38.07848 26.11526 4939 ft 223 kts 358°
2026-04-24 11:23 38.09317 26.11518 4653 ft 206 kts
2026-04-24 11:23 38.10708 26.11571 4369 ft 192 kts
2026-04-24 11:23 38.11996 26.11619 4132 ft 185 kts
2026-04-24 11:23 38.13269 26.11656 3886 ft 181 kts
2026-04-24 11:24 38.14520 26.11666 3640 ft 182 kts
2026-04-24 11:24 38.15808 26.11671 3403 ft 188 kts
2026-04-24 11:24 38.17104 26.11669 3156 ft 180 kts
2026-04-24 11:24 38.18299 26.11667 2927 ft 165 kts 360°
2026-04-24 11:25 38.19432 26.11665 2711 ft 160 kts
2026-04-24 11:25 38.20511 26.11665 2501 ft 148 kts
2026-04-24 11:25 38.21435 26.11661 2366 ft 119 kts
2026-04-24 11:25 38.22200 26.11673 2227 ft 107 kts
2026-04-24 11:26 38.22942 26.11781 2069 ft 109 kts
2026-04-24 11:26 38.23701 26.11931 1918 ft 112 kts 11°
2026-04-24 11:26 38.24469 26.12091 1766 ft 113 kts 10°
2026-04-24 11:26 38.25248 26.12248 1615 ft 114 kts 10°
2026-04-24 11:27 38.26031 26.12404 1473 ft 114 kts 10°
2026-04-24 11:27 38.26804 26.12556 1417 ft 108 kts 10°
2026-04-24 11:27 38.27554 26.12670 1298 ft 109 kts
2026-04-24 11:27 38.28305 26.12762 1182 ft 110 kts
2026-04-24 11:28 38.29065 26.12867 1044 ft 110 kts 12°
2026-04-24 11:28 38.29824 26.13046 919 ft 115 kts 11°
2026-04-24 11:28 38.30621 26.13215 766 ft 118 kts 10°
2026-04-24 11:28 38.31421 26.13399 550 ft 116 kts 13°
2026-04-24 11:29 38.32207 26.13585 338 ft 115 kts 11°
2026-04-24 11:29 38.32979 26.13762 193 ft 110 kts 10°
2026-04-24 11:29 38.33726 26.13922 46 ft 108 kts 10°
2026-04-24 11:29 38.34287 26.14045 27 ft 29 kts
2026-04-24 11:30 38.34361 26.14095 27 ft 12 kts 52°
2026-04-24 11:30 38.34387 26.14139 26 ft 0 kts 52°
2026-04-24 11:30 38.34389 26.14143 26 ft 2 kts 56°
2026-04-24 11:30 38.34405 26.14168 28 ft 5 kts 39°
2026-04-24 11:31 38.34444 26.14182 27 ft 6 kts 11°
2026-04-24 11:31 38.34474 26.14208 26 ft 3 kts 82°
2026-04-24 11:31 38.34469 26.14231 27 ft 3 kts 102°
2026-04-24 11:31 38.34468 26.14238 27 ft 0 kts 102°